Other Public Products
Issued by NWS Grand Forks, ND

Home | Current Version | Previous Version | Text Only | Print | Product List | Glossary Off
Versions: 1 2 3 4 5 6 7 8 9 10 11 12 13 14 15 16 17 18 19 20 21 22 23 24 25 26 27 28 29 30 31 32 33 34 35 36 37 38 39 40 41 42 43 44 45 46 47 48 49 50

000
FPUS83 KFGF 291310
OPUFGF
PRAIRIE TO PINES WEATHER ROUNDUP
NATIONAL WEATHER SERVICE EASTERN NORTH DAKOTA/GRAND FORKS ND
800 AM CDT WED MAR 29 2017

 **SATELLITE DATA USED TO AUGMENT SKY COVER AT AUTOMATED STATIONS**
 *****  WEATHER ACROSS EASTERN NORTH DAKOTA  *****

CITY           SKY/WX    TMP DP  RH WIND       PRES   REMARKS
GRAND FORKS    MOCLDY    33  32  96 S3        30.17S
GRAND FORKS AF FAIR      30  30 100 S5        30.16F
GRAND CITY NWS NOT AVBL
BUXTON         NOT AVBL
DEVILS LAKE    FAIR      36  35  96 SE6       30.15S
FARGO          FAIR      42  32  67 CALM      30.17R
WAHPETON ARPT  FAIR      37  32  81 SE7       30.18S
$$

 *****  WEATHER ACROSS CENTRAL AND WESTERN NORTH DAKOTA  *****

CITY           SKY/WX    TMP DP  RH WIND       PRES   REMARKS
JAMESTOWN      MOCLDY    33  32  96 W3        30.15F FOG
BISMARCK       CLOUDY    36  35  96 E5        30.15R FOG
MINOT          CLOUDY    44  40  85 S9        30.06S
MINOT AFB      CLOUDY    40  40  99 SW3       30.05S
GARRISON         N/A     35  34  96 S6        30.09S
WILLISTON      CLOUDY    32  32 100 SW3       30.05F FOG
DICKINSON      FOG       38  38 100 S17       30.06S VSB 1/4
HETTINGER      FOG       33  32  96 CALM      30.11F VSB 1/4
$$

 *****  OTHER OBSERVATIONS NORTHEAST NORTH DAKOTA  *****

CITY           SKY/WX    TMP DP  RH WIND       PRES   REMARKS
WALHALLA       NOT AVBL
LANGDON        FAIR      36  36 100 S14       30.12F
CAVALIER       FAIR      30  30 100 CALM      30.15S FOG
GRAFTON        FAIR      32  32 100 SE5       30.18S
CANDO          NOT AVBL
FORT TOTTEN      N/A     36  36 100 S7        29.95S
ROLLA          CLOUDY    36  36 100 S9        30.09F
RUGBY          NOT AVBL
 ***** THE ABOVE OBSERVATIONS ARE NON NWS ARE NOT QUALITY
        CONTROLLED AND MAY MIS-REPORT RAIN FOR SNOW...
$$

 *****  OTHER OBSERVATIONS SOUTHEAST NORTH DAKOTA *****

CITY           SKY/WX    TMP DP  RH WIND       PRES   REMARKS
COOPERSTOWN    FAIR      32  32 100 S3        30.17S
VALLEY CITY    FAIR      34  34 100 NW5       30.18S FOG
OAKES          NOT AVBL
GWINNER        FOG       37  37 100 MISG      30.16S VSB 1/4
SHEYENNE NWR     N/A     32  32 100 CALM      29.95S
BUFFALO        NOT AVBL
WYNDMERE       NOT AVBL
 ***** THE ABOVE OBSERVATIONS ARE NON NWS ARE NOT QUALITY
       CONTROLLED AND MAY MIS-REPORT RAIN FOR SNOW...
$$

  *****  WEATHER ACROSS NORTHERN MINNESOTA  *****

CITY           SKY/WX    TMP DP  RH WIND       PRES   REMARKS
FLAG ISLAND    FAIR      34  25  69 SE7       30.22S
WARROAD        FAIR      34  30  86 E6        30.22R
ROSEAU         FAIR      36  30  80 E5        30.20R
HALLOCK        FAIR      34  30  86 SE8       30.17F
THF RVR FALLS  FAIR      35  29  78 SE10      30.20R
HALSTAD          N/A     34  30  85 E3          N/A
FOSSTON        FAIR      37  28  70 E6        30.20R
BAUDETTE       FAIR      34  26  72 MISG      30.23S
WASKISH        MOCLDY    34  28  80 E7        30.24R
CROOKSTON      FAIR      34  30  86 CALM      30.20R
$$
  *****  WEATHER ACROSS CENTRAL AND WEST MINNESOTA  *****

CITY           SKY/WX    TMP DP  RH WIND       PRES   REMARKS
BEMIDJI        FAIR      34  28  80 E6        30.23R
PARK RAPIDS    FAIR      37  26  64 SE5       30.21R
WADENA         FAIR      34  28  80 E5        30.21S
DETROIT LAKES  FAIR      39  30  70 SE8       30.20S
MOORHEAD       FAIR      34  32  93 CALM      30.18S
FERGUS FALLS   FAIR      41  30  65 E5        30.22S
ELBOW LAKE     FAIR      40  33  74 CALM      30.19R
MORRIS MN      FAIR      37  32  81 E8        30.18R
STAPLES        FAIR      34  28  80 E3        30.22S
WHEATON        FOG       32  30  93 CALM      30.20S VSB 1/2
$$
  *****  WEATHER ELSEWHERE ACROSS MINNESOTA  *****

CITY           SKY/WX    TMP DP  RH WIND       PRES   REMARKS
DULUTH         FAIR      33  28  81 E15       30.29R WCI  23
INTRNTL FALLS  FAIR      32  25  75 E8        30.28S WCI  25
ELY            FAIR      28  23  80 CALM      30.30S
CLOQUET        FAIR      34  28  80 E10G18    30.28R
BRAINERD       FAIR      33  28  81 E5        30.25R
HIBBING        FAIR      29  25  85 E3        30.28R
ALEXANDRIA     FAIR      39  30  70 E10       30.21R
SAINT CLOUD    FAIR      35  30  82 E7        30.22R
MINNEAPOLIS    CLOUDY    45  33  63 SE6       30.22R
$$

  *****  WEATHER ACROSS SOUTH DAKOTA  *****

CITY           SKY/WX    TMP DP  RH WIND       PRES   REMARKS
SIOUX FALLS    CLOUDY    42  39  89 NE5       30.14S
BROOKINGS      FAIR      42  36  79 E5        30.15S
WATERTOWN      FAIR      37  34  89 CALM      30.15S
HURON          FAIR      41  37  86 NE3       30.14S
SISSETON         N/A     35  34  96 CALM      30.17R
ABERDEEN       FAIR      36  32  85 N3        30.16S
MITCHELL       FAIR      42  37  82 NE5       30.14R
PIERRE         CLOUDY    43  41  93 W3        30.14R FOG
MOBRIDGE       CLOUDY    44  39  82 CALM      30.12F
RAPID CITY     CLOUDY    38  37  97 CALM      30.11R FOG
$$

  *****  SOME WEATHER IN NEARBY STATES *****

CITY           SKY/WX    TMP DP  RH WIND       PRES   REMARKS
GLASGOW MT     MOCLDY    38  28  67 SW5       30.01S
GREAT FALLS MT FAIR      38  26  62 SW12      30.04F
CHEYENNE WY    CLOUDY    35  33  92 N13       30.10R
SCOTTSBLUFF NE CLOUDY    39  37  92 NW3       30.12R
OMAHA NE       LGT RAIN  46  41  82 NE16      30.02S
DES MOINES IA  LGT RAIN  44  41  89 E16       30.06F FOG
DAVENPORT IA   CLOUDY    40  38  93 E12       30.17S FOG
CHICAGO IL     CLOUDY    36  34  92 NE7       30.25R FOG
EAU CLAIRE WI  FAIR      37  31  78 NE3       30.25R
LA CROSSE WI   FAIR      42  32  67 SE6       30.24R
$$

  *****  SOME NATIONAL WEATHER *****

CITY           SKY/WX    TMP DP  RH WIND       PRES   REMARKS
LA GUARDIA NY  CLOUDY    47  38  71 N12       30.06R
RALEIGH NC     FAIR      61  55  81 NE8       30.06R
ATLANTA GA     FAIR      65  55  70 E7        30.06R
NEW ORLEANS LA PTSUNNY   71  67  87 SE7       29.91R
OKLAHOMA CITY  CLOUDY    53  51  93 W6        29.63R
ALBUQUERQUE NM MOCLDY    43  39  86 N10       29.93R
SALT LAKE CITY FAIR      37  30  75 SE5       30.23S
LOS ANGELES CA FAIR      56  52  86 CALM      30.00R
BOISE ID       MOCLDY    42  32  67 SE8       30.18F
SEATTLE WA     LGT RAIN  46  45  96 SE6       29.90F
$$

*** WEATHER ACROSS MANITOBA...SASKATCHEWAN AND ONTARIO ***
                ***ONTARIO***

CITY           SKY/WX    TMP DP  RH WIND       PRES   REMARKS
GERALDTON      MOSUNNY   19  14  79 CALM      30.43R
THUNDER BAY    PTSUNNY   30  27  86 E9        30.43R WCI  22
SIOUX LOOKOUT  CLOUDY    28  18  64 SE9       30.32S WCI  20
TORONTO        MOSUNNY   37  28  70 N8        30.26R
BIG TROUT LK   MOSUNNY   12   9  85 S3        30.43R
PICKLE LAKE    PTSUNNY   19  14  79 S6        30.40R WCI  11
DRYDEN         MOCLDY    30  21  69 SE10      30.28F WCI  21
KENORA         MOCLDY    32  23  69 SE9       30.23S WCI  24
$$
                *** MANITOBA***

CITY           SKY/WX    TMP DP  RH WIND       PRES   REMARKS
BRANDON        MOCLDY    32  30  93 E5        30.08F
DAUPHIN        CLOUDY    32  30  93 SE7       30.07F
ISLAND LAKE    MOCLDY    21  14  73 SE9       30.28S WCI  11
PILOT MOUND      N/A     36  34  93 S14         N/A
THE PAS        CLOUDY    30  27  86 SE14      30.07S WCI  20
THOMPSON       PTCLDY    12   9  85 E3        30.21S
WINNIPEG       MOCLDY    36  28  75 SE8       30.15F
LYNN LAKE      CLOUDY    21  16  79 SE5       30.10S WCI  15
CHURCHILL      MOCLDY     3   0  85 S10       30.35F WCI -12
GILLAM         MOCLDY    16  10  79 SE7       30.30S WCI   6
$$
                ***SASKATCHEWAN***

CITY           SKY/WX    TMP DP  RH WIND       PRES   REMARKS
ESTEVAN        CLOUDY    34  34 100 SE7       30.01F
KINDERSLEY     MOCLDY    30  27  86 SW5       29.84R
LLOYDMINSTER   CLOUDY    34  34 100 E2        29.86R FOG
PRINCE ALBERT  LGT RAIN  34  32  93 E12G18    29.90F FOG
REGINA         CLOUDY    34  34 100 SE10      29.94S FOG
YORKTON        FOG       34  32  93 S10       29.98F VS


USA.gov is the U.S. government's official web portal to all federal, state and local government web resources and services.